Fort Lewis, WA

3:58 AM PDT on May 25, 2017 (GMT -0700)
Gray Army Air Field

Weather History for KGRF - April, 2013

Change the Weather History Date:

Monday, April 29, 2013

  Actual Average Record
Temperature  
Mean Temperature 48 °F -  
Max Temperature 55 °F 60 °F 77 °F (1998)
Min Temperature 38 °F 40 °F 33 °F (1999)
Degree Days  
Heating Degree Days 18    
Moisture  
Dew Point 37 °F    
Average Humidity 65    
Maximum Humidity 100    
Minimum Humidity 36    
Precipitation  
Precipitation 0.01 in - - ()
Sea Level Pressure  
Sea Level Pressure 30.06 in    
Wind  
Wind Speed 14 mph (SSW)    
Max Wind Speed 23 mph    
Max Gust Speed 32 mph    
Visibility 10 miles    
Events      
Averages and records for this station are not official NWS values.
T = Trace of Precipitation, MM = Missing Value Source: NWS Daily Summary

Daily Weather History Graph

Daily Weather History Graph

Search for Another Location

Airport or City:

Trip Planner

Search our weather history database for the weather conditions in past years. The results will help you decide how hot, cold, wet, or windy it might be!

Date:

Astronomy

Apr. 29, 2013 Rise Set
Actual Time 5:57 AM PDT 8:18 PM PDT
Civil Twilight 5:23 AM PDT 8:52 PM PDT
Nautical Twilight 4:41 AM PDT 9:35 PM PDT
Astronomical Twilight 3:53 AM PDT 10:23 PM PDT
Moon 12:00 AM PDT (4/29) 9:17 AM PDT (4/29)
Length of Visible Light 15h 29m
Length of Day
14h 21m
Waning Gibbous, 79% of the Moon is Illuminated
Apr 29
Waning Gibbous
May 2
Last Quarter
May 9
New
May 17
First Quarter
May 24
Full

Hourly Weather History & Observations

Time (PDT) Temp. Windchill Dew Point Humidity Pressure Visibility Wind Dir Wind Speed Gust Speed Precip Events Conditions
12:04 AM 48.2 °F - 46.4 °F 93% 29.96 in 10.0 mi SSE 12.7 mph - N/A   Overcast
12:11 AM 48.2 °F - 46.4 °F 93% 29.95 in 10.0 mi SSE 13.8 mph 20.7 mph N/A   Light Drizzle
12:20 AM 48.2 °F - 46.4 °F 93% 29.95 in 10.0 mi SSE 12.7 mph - N/A   Overcast
12:35 AM 48.2 °F - 46.4 °F 93% 29.95 in 10.0 mi SSE 13.8 mph - N/A   Overcast
12:40 AM 48.2 °F - 46.4 °F 93% 29.95 in 10.0 mi SSE 12.7 mph - N/A   Overcast
12:45 AM 48.2 °F - 46.4 °F 93% 29.95 in 10.0 mi South 11.5 mph - N/A   Overcast
12:50 AM 48.2 °F - 46.4 °F 93% 29.95 in 10.0 mi SSE 11.5 mph - N/A   Overcast
12:58 AM 48.6 °F - 47.3 °F 95% 29.96 in 10.0 mi South 10.4 mph - 0.01 in   Overcast
1:03 AM 48.2 °F - 48.2 °F 100% 29.95 in 9.0 mi South 5.8 mph - N/A   Overcast
1:58 AM 49.6 °F - 48.6 °F 96% 29.97 in 10.0 mi South 11.5 mph - N/A   Overcast
2:18 AM 50.0 °F - 46.4 °F 87% 29.97 in 10.0 mi WSW 16.1 mph 31.1 mph N/A   Mostly Cloudy
2:19 AM 50.0 °F - 46.4 °F 87% 29.97 in 10.0 mi WSW 17.3 mph 31.1 mph N/A   Mostly Cloudy
2:29 AM 48.2 °F - 44.6 °F 87% 29.98 in 10.0 mi SW 18.4 mph 25.3 mph N/A   Mostly Cloudy
2:34 AM 48.2 °F - 44.6 °F 87% 29.98 in 10.0 mi SSW 16.1 mph 23.0 mph N/A   Mostly Cloudy
2:58 AM 47.5 °F - 42.3 °F 82% 30.01 in 10.0 mi SW 19.6 mph 32.2 mph N/A   Partly Cloudy
3:58 AM 46.6 °F - 39.4 °F 76% 30.03 in 10.0 mi SSW 18.4 mph 27.6 mph N/A   Clear
4:58 AM 45.7 °F 38.8 °F 36.3 °F 70% 30.03 in 10.0 mi SSW 16.1 mph 31.1 mph N/A   Clear
5:58 AM 45.0 °F 37.9 °F 36.1 °F 71% 30.04 in 10.0 mi SSW 16.1 mph 25.3 mph N/A   Clear
6:58 AM 44.8 °F 36.2 °F 36.5 °F 73% 30.05 in 10.0 mi SSW 23.0 mph 31.1 mph N/A   Partly Cloudy
7:58 AM 46.4 °F 39.5 °F 36.1 °F 67% 30.06 in 10.0 mi South 17.3 mph 28.8 mph N/A   Clear
8:58 AM 48.4 °F - 34.7 °F 59% 30.09 in 10.0 mi SSW 17.3 mph 26.5 mph N/A   Clear
9:58 AM 49.5 °F - 32.7 °F 53% 30.11 in 10.0 mi SW 10.4 mph 23.0 mph N/A   Partly Cloudy
10:14 AM 50.0 °F - 32.0 °F 50% 30.09 in 10.0 mi SSW 17.3 mph 23.0 mph N/A   Partly Cloudy
10:30 AM 50.0 °F - 32.0 °F 50% 30.09 in 10.0 mi WSW 12.7 mph 24.2 mph N/A   Scattered Clouds
10:58 AM 49.6 °F - 31.3 °F 49% 30.12 in 10.0 mi SSW 13.8 mph 23.0 mph N/A   Mostly Cloudy
11:56 AM 53.6 °F - 32.0 °F 44% 30.11 in 10.0 mi SSW 18.4 mph 27.6 mph N/A   Scattered Clouds
11:58 AM 53.1 °F - 32.9 °F 46% 30.13 in 10.0 mi SSW 18.4 mph 27.6 mph N/A   Scattered Clouds
12:28 PM 53.6 °F - 32.0 °F 44% 30.11 in 10.0 mi West 19.6 mph 28.8 mph N/A   Clear
12:41 PM 53.6 °F - 32.0 °F 44% 30.11 in 10.0 mi SSW 20.7 mph 26.5 mph N/A   Partly Cloudy
12:42 PM 53.6 °F - 32.0 °F 44% 30.11 in 10.0 mi SSW 20.7 mph 26.5 mph N/A   Partly Cloudy
12:58 PM 53.2 °F - 32.4 °F 45% 30.13 in 10.0 mi SSW 16.1 mph 28.8 mph N/A   Mostly Cloudy
1:58 PM 55.4 °F - 32.5 °F 42% 30.12 in 10.0 mi WSW 17.3 mph 26.5 mph N/A   Partly Cloudy
2:58 PM 53.8 °F - 30.0 °F 40% 30.14 in 10.0 mi SW 12.7 mph 31.1 mph N/A   Clear
3:34 PM 55.4 °F - 33.8 °F 44% 30.11 in 10.0 mi WSW 17.3 mph 26.5 mph N/A   Scattered Clouds
3:52 PM 55.4 °F - 32.0 °F 41% 30.12 in 10.0 mi West 15.0 mph 26.5 mph N/A   Scattered Clouds
3:58 PM 54.5 °F - 32.0 °F 42% 30.13 in 10.0 mi SW 15.0 mph 28.8 mph N/A   Scattered Clouds
4:58 PM 54.9 °F - 29.8 °F 38% 30.13 in 10.0 mi SW 19.6 mph 25.3 mph N/A   Partly Cloudy
5:02 PM 55.4 °F - 28.4 °F 36% 30.12 in 10.0 mi WSW 12.7 mph 25.3 mph N/A   Partly Cloudy
5:58 PM 53.1 °F - 28.6 °F 39% 30.14 in 10.0 mi SW 18.4 mph 27.6 mph N/A   Clear
6:58 PM 51.4 °F - 28.6 °F 41% 30.15 in 10.0 mi SW 16.1 mph 26.5 mph N/A   Clear
7:58 PM 48.2 °F - 30.2 °F 50% 30.15 in 10.0 mi SW 18.4 mph - N/A   Clear
8:58 PM 45.0 °F 40.1 °F 31.3 °F 59% 30.17 in 10.0 mi South 9.2 mph - N/A   Clear
9:58 PM 42.1 °F 36.6 °F 31.6 °F 67% 30.18 in 10.0 mi SSE 9.2 mph - N/A   Clear
10:58 PM 40.6 °F 35.4 °F 32.4 °F 72% 30.19 in 10.0 mi SE 8.1 mph - N/A   Clear
11:58 PM 38.5 °F 31.6 °F 32.2 °F 78% 30.18 in 10.0 mi SSE 10.4 mph - N/A   Clear